Flag for United Kingdom Weather past 2 weeks in Preston, England, United Kingdom

Now
41 °F

Passing clouds.


Feels Like: 34 °F
Forecast: N/A
Wind: 12 mph from Southwest

Location: Blackpool Airport

Current Time: Mar 4, 2015 at 10:53:02 PM

Latest Report: Mar 4, 2015 at 7:50 PM


Visibility: N/A

Pressure: 30.60 "Hg

Humidity: 87%

Dew point: 37 °F

Location of PrestonLocation

Historic Weather in Preston — Graph

°F

Preston temperature yesterday

Maximum temperature yesterday: 43 °F (at 11:20 AM)
Minimum temperature yesterday: 39 °F (at 6:20 AM)
Average temperature yesterday: 41 °F

Past Weeks' High & Low Weather Summary

 TemperatureHumidityPressure
High50 °F (Feb 18, 1:50 PM)100% (Feb 25, 7:50 AM)30.63 "Hg (Feb 25, 7:50 AM)
Low37 °F (Feb 21, 8:20 AM)57% (Mar 2, 2:50 PM)28.94 "Hg (Feb 23, 7:20 PM)
Average43 °F82%29.73 "Hg
* Reported Feb 17 7:50 PM — Mar 4 7:50 PM, Preston, Weather by CustomWeather, © 2015

Note: Actual official high and low records may vary slightly from our data, if they occured in-between our weather recording intervals... More about our weather records

Advertising

Preston weather history for previous 24 hours

 ConditionsComfort  
Time TempWeatherWind HumidityBarometerVisibility
7:50 PM
Wed, Mar 4
41 °FPassing clouds.12 mph87%30.60 "HgN/A
6:50 PM43 °FPassing clouds.12 mph81%30.57 "HgN/A
6:20 PM43 °FPassing clouds.12 mph87%30.57 "HgN/A
5:50 PM43 °FPassing clouds.16 mph87%30.54 "HgN/A
5:20 PM43 °FPassing clouds.13 mph87%30.54 "HgN/A
4:50 PM45 °FPassing clouds.16 mph81%30.54 "HgN/A
4:20 PM45 °FPassing clouds.17 mph81%30.51 "HgN/A
3:50 PM45 °FPassing clouds.16 mph81%30.51 "HgN/A
2:50 PM45 °FPassing clouds.16 mph81%30.48 "HgN/A
2:20 PM46 °FPassing clouds.15 mph76%30.48 "HgN/A
1:50 PM46 °FScattered clouds.12 mph76%30.45 "HgN/A
12:50 PM46 °FScattered clouds.14 mph71%30.45 "HgN/A
12:20 PM46 °FScattered clouds.18 mph71%30.42 "HgN/A
11:50 AM45 °FScattered clouds.16 mph76%30.42 "HgN/A
11:20 AM43 °FScattered clouds.16 mph81%30.39 "HgN/A
10:50 AM43 °FPassing clouds.12 mph81%30.39 "HgN/A
10:20 AM43 °FPassing clouds.15 mph81%30.36 "HgN/A
9:50 AM43 °FPassing clouds.21 mph76%30.33 "HgN/A
9:20 AM43 °FPassing clouds.22 mph81%30.30 "HgN/A
8:50 AM43 °FScattered clouds.23 mph76%30.30 "HgN/A
8:20 AM43 °FScattered clouds.23 mph76%30.27 "HgN/A
7:50 AM43 °FPartly sunny.22 mph76%30.27 "HgN/A
7:20 AM43 °FScattered clouds.24 mph76%30.24 "HgN/A
6:50 AM43 °FPassing clouds.23 mph76%30.21 "HgN/A
6:20 AM41 °FPassing clouds.25 mph81%30.18 "HgN/A
Weather by CustomWeather, © 2015

See weather overviewHow to use our weather pages